Year,Month,Day,Hour,Minute,Value (Times are PST for temperature in C)
2013,07,26,00,00,13.80
2013,07,26,00,01,13.90
2013,07,26,00,02,13.90
2013,07,26,00,03,13.90
2013,07,26,00,04,14.00
2013,07,26,00,05,14.00
2013,07,26,00,06,14.00
2013,07,26,00,07,14.00
2013,07,26,00,08,14.10
2013,07,26,00,09,14.10
2013,07,26,00,10,14.10
2013,07,26,00,11,14.10
2013,07,26,00,12,14.10
2013,07,26,00,13,14.10
2013,07,26,00,14,14.10
2013,07,26,00,15,14.10
2013,07,26,00,16,14.00
2013,07,26,00,17,14.00
2013,07,26,00,18,14.00
2013,07,26,00,19,13.90
2013,07,26,00,20,13.90
2013,07,26,00,21,13.90
2013,07,26,00,22,13.80
2013,07,26,00,23,13.80
2013,07,26,00,24,13.80
2013,07,26,00,25,13.80
2013,07,26,00,26,13.70
2013,07,26,00,27,13.70
2013,07,26,00,28,13.70
2013,07,26,00,29,13.70
2013,07,26,00,30,13.60
2013,07,26,00,31,13.60
2013,07,26,00,32,13.60
2013,07,26,00,33,13.60
2013,07,26,00,34,13.50
2013,07,26,00,35,13.50
2013,07,26,00,36,13.50
2013,07,26,00,37,13.40
2013,07,26,00,38,13.40
2013,07,26,00,39,13.40
2013,07,26,00,40,13.40
2013,07,26,00,41,13.30
2013,07,26,00,42,13.30
2013,07,26,00,43,13.30
2013,07,26,00,44,13.30
2013,07,26,00,45,13.30
2013,07,26,00,46,13.30
2013,07,26,00,47,13.30
2013,07,26,00,48,13.30
2013,07,26,00,49,13.30
2013,07,26,00,50,13.30
2013,07,26,00,51,13.30
2013,07,26,00,52,13.30
2013,07,26,00,53,13.30
2013,07,26,00,54,13.30
2013,07,26,00,55,13.30
2013,07,26,00,56,13.30
2013,07,26,00,57,13.30
2013,07,26,00,58,13.30
2013,07,26,00,59,13.30
2013,07,26,01,00,13.30
2013,07,26,01,01,13.30
2013,07,26,01,02,13.30
2013,07,26,01,03,13.40
2013,07,26,01,04,13.50
2013,07,26,01,05,13.50
2013,07,26,01,06,13.50
2013,07,26,01,07,13.50
2013,07,26,01,08,13.60
2013,07,26,01,09,13.60
2013,07,26,01,10,13.60
2013,07,26,01,11,13.60
2013,07,26,01,12,13.60
2013,07,26,01,13,13.70
2013,07,26,01,14,13.70
2013,07,26,01,15,13.70
2013,07,26,01,16,13.70
2013,07,26,01,17,13.70
2013,07,26,01,18,13.70
2013,07,26,01,19,13.80
2013,07,26,01,20,13.80
2013,07,26,01,21,13.90
2013,07,26,01,22,13.90
2013,07,26,01,23,14.00
2013,07,26,01,24,14.00
2013,07,26,01,25,14.00
2013,07,26,01,26,14.10
2013,07,26,01,27,14.10
2013,07,26,01,28,14.20
2013,07,26,01,29,14.20
2013,07,26,01,30,14.20
2013,07,26,01,31,14.20
2013,07,26,01,32,14.20
2013,07,26,01,33,14.20
2013,07,26,01,34,14.20
2013,07,26,01,35,14.20
2013,07,26,01,36,14.20
2013,07,26,01,37,14.30
2013,07,26,01,38,14.30
2013,07,26,01,39,14.30
2013,07,26,01,40,14.30
2013,07,26,01,41,14.30
2013,07,26,01,42,14.30
2013,07,26,01,43,14.30
2013,07,26,01,44,14.30
2013,07,26,01,45,14.20
2013,07,26,01,46,14.20
2013,07,26,01,47,14.20
2013,07,26,01,48,14.30
2013,07,26,01,49,14.30
2013,07,26,01,50,14.30
2013,07,26,01,51,14.30
2013,07,26,01,52,14.40
2013,07,26,01,53,14.40
2013,07,26,01,54,14.50
2013,07,26,01,55,14.50
2013,07,26,01,56,14.60
2013,07,26,01,57,14.60
2013,07,26,01,58,14.70
2013,07,26,01,59,14.70
2013,07,26,02,00,14.70
2013,07,26,02,01,14.80
2013,07,26,02,02,14.80
2013,07,26,02,03,14.80
2013,07,26,02,04,14.80
2013,07,26,02,05,14.80
2013,07,26,02,06,14.80
2013,07,26,02,07,14.80
2013,07,26,02,08,14.90
2013,07,26,02,09,14.90
2013,07,26,02,10,14.90
2013,07,26,02,11,14.90
2013,07,26,02,12,14.90
2013,07,26,02,13,14.90
2013,07,26,02,14,14.90
2013,07,26,02,15,14.90
2013,07,26,02,16,14.90
2013,07,26,02,17,14.90
2013,07,26,02,18,14.90
2013,07,26,02,19,14.90
2013,07,26,02,20,15.00
2013,07,26,02,21,15.00
2013,07,26,02,22,15.00
2013,07,26,02,23,15.00
2013,07,26,02,24,15.00
2013,07,26,02,25,15.10
2013,07,26,02,26,15.10
2013,07,26,02,27,15.10
2013,07,26,02,28,15.10
2013,07,26,02,29,15.20
2013,07,26,02,30,15.20
2013,07,26,02,31,15.20
2013,07,26,02,32,15.20
2013,07,26,02,33,15.20
2013,07,26,02,34,15.20
2013,07,26,02,35,15.20
2013,07,26,02,36,15.10
2013,07,26,02,37,15.10
2013,07,26,02,38,15.10
2013,07,26,02,39,15.10
2013,07,26,02,40,15.10
2013,07,26,02,41,15.10
2013,07,26,02,42,15.10
2013,07,26,02,43,15.10
2013,07,26,02,44,15.10
2013,07,26,02,45,15.10
2013,07,26,02,46,15.10
2013,07,26,02,47,15.20
2013,07,26,02,48,15.20
2013,07,26,02,49,15.20
2013,07,26,02,50,15.20
2013,07,26,02,51,15.30
2013,07,26,02,52,15.30
2013,07,26,02,53,15.30
2013,07,26,02,54,15.30
2013,07,26,02,55,15.30
2013,07,26,02,56,15.30
2013,07,26,02,57,15.40
2013,07,26,02,58,15.40
2013,07,26,02,59,15.40
2013,07,26,03,00,15.40
2013,07,26,03,01,15.40
2013,07,26,03,02,15.40
2013,07,26,03,03,15.40
2013,07,26,03,04,15.40
2013,07,26,03,05,15.40
2013,07,26,03,06,15.40
2013,07,26,03,07,15.40
2013,07,26,03,08,15.40
2013,07,26,03,09,15.30
2013,07,26,03,10,15.30
2013,07,26,03,11,15.30
2013,07,26,03,12,15.30
2013,07,26,03,13,15.20
2013,07,26,03,14,15.10
2013,07,26,03,15,15.10
2013,07,26,03,16,15.10
2013,07,26,03,17,15.00
2013,07,26,03,18,15.00
2013,07,26,03,19,14.90
2013,07,26,03,20,14.90
2013,07,26,03,21,14.90
2013,07,26,03,22,14.80
2013,07,26,03,23,14.80
2013,07,26,03,24,14.80
2013,07,26,03,25,14.80
2013,07,26,03,26,14.70
2013,07,26,03,27,14.60
2013,07,26,03,28,14.60
2013,07,26,03,29,14.60
2013,07,26,03,30,14.50
2013,07,26,03,31,14.50
2013,07,26,03,32,14.50
2013,07,26,03,33,14.40
2013,07,26,03,34,14.40
2013,07,26,03,35,14.20
2013,07,26,03,36,13.90
2013,07,26,03,37,13.60
2013,07,26,03,38,13.40
2013,07,26,03,39,13.20
2013,07,26,03,40,13.10
2013,07,26,03,41,13.10
2013,07,26,03,42,13.00
2013,07,26,03,43,12.90
2013,07,26,03,44,12.90
2013,07,26,03,45,12.90
2013,07,26,03,46,12.80
2013,07,26,03,47,12.80
2013,07,26,03,48,12.80
2013,07,26,03,49,12.70
2013,07,26,03,50,12.70
2013,07,26,03,51,12.60
2013,07,26,03,52,12.60
2013,07,26,03,53,12.60
2013,07,26,03,54,12.60
2013,07,26,03,55,12.60
2013,07,26,03,56,12.60
2013,07,26,03,57,12.60
2013,07,26,03,58,12.60
2013,07,26,03,59,12.60
2013,07,26,04,00,12.50
2013,07,26,04,01,12.50
2013,07,26,04,02,12.40
2013,07,26,04,03,12.40
2013,07,26,04,04,12.40
2013,07,26,04,05,12.40
2013,07,26,04,06,12.40
2013,07,26,04,07,12.40
2013,07,26,04,08,12.40
2013,07,26,04,09,12.50
2013,07,26,04,10,12.50
2013,07,26,04,11,12.50
2013,07,26,04,12,12.60
2013,07,26,04,13,12.60
2013,07,26,04,14,12.70
2013,07,26,04,15,12.80
2013,07,26,04,16,12.80
2013,07,26,04,17,12.80
2013,07,26,04,18,12.80
2013,07,26,04,19,12.80
2013,07,26,04,20,12.80
2013,07,26,04,21,12.80
2013,07,26,04,22,12.70
2013,07,26,04,23,12.70
2013,07,26,04,24,12.70
2013,07,26,04,25,12.70
2013,07,26,04,26,12.70
2013,07,26,04,27,12.60
2013,07,26,04,28,12.60
2013,07,26,04,29,12.50
2013,07,26,04,30,12.50
2013,07,26,04,31,12.40
2013,07,26,04,32,12.40
2013,07,26,04,33,12.40
2013,07,26,04,34,12.30
2013,07,26,04,35,12.30
2013,07,26,04,36,12.30
2013,07,26,04,37,12.30
2013,07,26,04,38,12.30
2013,07,26,04,39,12.30
2013,07,26,04,40,12.40
2013,07,26,04,41,12.50
2013,07,26,04,42,12.60
2013,07,26,04,43,12.70
2013,07,26,04,44,12.70
2013,07,26,04,45,12.80
2013,07,26,04,46,12.80
2013,07,26,04,47,12.80
2013,07,26,04,48,12.90
2013,07,26,04,49,13.00
2013,07,26,04,50,13.00
2013,07,26,04,51,13.10
2013,07,26,04,52,13.20
2013,07,26,04,53,13.30
2013,07,26,04,54,13.40
2013,07,26,04,55,13.40
2013,07,26,04,56,13.50
2013,07,26,04,57,13.50
2013,07,26,04,58,13.50
2013,07,26,04,59,13.50
2013,07,26,05,00,13.40
2013,07,26,05,01,13.40
2013,07,26,05,02,13.40
2013,07,26,05,03,13.40
2013,07,26,05,04,13.40
2013,07,26,05,05,13.40
2013,07,26,05,06,13.30
2013,07,26,05,07,13.30
2013,07,26,05,08,13.30
2013,07,26,05,09,13.30
2013,07,26,05,10,13.40
2013,07,26,05,11,13.40
2013,07,26,05,12,13.40
2013,07,26,05,13,13.40
2013,07,26,05,14,13.40
2013,07,26,05,15,13.50
2013,07,26,05,16,13.50
2013,07,26,05,17,13.60
2013,07,26,05,18,13.60
2013,07,26,05,19,13.60
2013,07,26,05,20,13.60
2013,07,26,05,21,13.60
2013,07,26,05,22,13.60
2013,07,26,05,23,13.60
2013,07,26,05,24,13.60
2013,07,26,05,25,13.60
2013,07,26,05,26,13.60
2013,07,26,05,27,13.60
2013,07,26,05,28,13.70
2013,07,26,05,29,13.60
2013,07,26,05,30,13.60
2013,07,26,05,31,13.70
2013,07,26,05,32,13.70
2013,07,26,05,33,13.70
2013,07,26,05,34,13.70
2013,07,26,05,35,13.70
2013,07,26,05,36,13.70
2013,07,26,05,37,13.80
2013,07,26,05,38,13.90
2013,07,26,05,39,13.90
2013,07,26,05,40,14.00
2013,07,26,05,41,14.00
2013,07,26,05,42,14.10
2013,07,26,05,43,14.10
2013,07,26,05,44,14.20
2013,07,26,05,45,14.20
2013,07,26,05,46,14.20
2013,07,26,05,47,14.20
2013,07,26,05,48,14.20
2013,07,26,05,49,14.20
2013,07,26,05,50,14.20
2013,07,26,05,51,14.20
2013,07,26,05,52,14.20
2013,07,26,05,53,14.20
2013,07,26,05,54,14.20
2013,07,26,05,55,14.20
2013,07,26,05,56,14.20
2013,07,26,05,57,14.30
2013,07,26,05,58,14.30
2013,07,26,05,59,14.30
2013,07,26,06,00,14.40
2013,07,26,06,01,14.40
2013,07,26,06,02,14.50
2013,07,26,06,03,14.50
2013,07,26,06,04,14.50
2013,07,26,06,05,14.60
2013,07,26,06,06,14.60
2013,07,26,06,07,14.70
2013,07,26,06,08,14.70
2013,07,26,06,09,14.80
2013,07,26,06,10,14.80
2013,07,26,06,11,14.80
2013,07,26,06,12,14.80
2013,07,26,06,13,14.90
2013,07,26,06,14,14.90
2013,07,26,06,15,15.00
2013,07,26,06,16,15.00
2013,07,26,06,17,15.00
2013,07,26,06,18,15.10
2013,07,26,06,19,15.10
2013,07,26,06,20,15.10
2013,07,26,06,21,15.10
2013,07,26,06,22,15.10
2013,07,26,06,23,15.20
2013,07,26,06,24,15.20
2013,07,26,06,25,15.20
2013,07,26,06,26,15.20
2013,07,26,06,27,15.20
2013,07,26,06,28,15.20
2013,07,26,06,29,15.30
2013,07,26,06,30,15.30
2013,07,26,06,31,15.30
2013,07,26,06,32,15.20
2013,07,26,06,33,15.20
2013,07,26,06,34,15.20
2013,07,26,06,35,15.20
2013,07,26,06,36,15.10
2013,07,26,06,37,15.10
2013,07,26,06,38,15.10
2013,07,26,06,39,15.10
2013,07,26,06,40,15.10
2013,07,26,06,41,15.00
2013,07,26,06,42,15.00
2013,07,26,06,43,15.00
2013,07,26,06,44,15.00
2013,07,26,06,45,15.00
2013,07,26,06,46,15.00
2013,07,26,06,47,15.00
2013,07,26,06,48,15.00
2013,07,26,06,49,15.00
2013,07,26,06,50,15.00
2013,07,26,06,51,15.00
2013,07,26,06,52,15.00
2013,07,26,06,53,15.00
2013,07,26,06,54,15.10
2013,07,26,06,55,15.10
2013,07,26,06,56,15.20
2013,07,26,06,57,15.20
2013,07,26,06,58,15.20
2013,07,26,06,59,15.20
2013,07,26,07,00,15.20
2013,07,26,07,01,15.30
2013,07,26,07,02,15.30
2013,07,26,07,03,15.30
2013,07,26,07,04,15.30
2013,07,26,07,05,15.30
2013,07,26,07,06,15.30
2013,07,26,07,07,15.30
2013,07,26,07,08,15.40
2013,07,26,07,09,15.50
2013,07,26,07,10,15.50
2013,07,26,07,11,15.60
2013,07,26,07,12,15.60
2013,07,26,07,13,15.60
2013,07,26,07,14,15.60
2013,07,26,07,15,15.70
2013,07,26,07,16,15.70
2013,07,26,07,17,15.70
2013,07,26,07,18,15.80
2013,07,26,07,19,15.80
2013,07,26,07,20,15.80
2013,07,26,07,21,15.90
2013,07,26,07,22,16.00
2013,07,26,07,23,16.10
2013,07,26,07,24,16.10
2013,07,26,07,25,16.10
2013,07,26,07,26,16.10
2013,07,26,07,27,16.20
2013,07,26,07,28,16.20
2013,07,26,07,29,16.20
2013,07,26,07,30,16.10
2013,07,26,07,31,16.10
2013,07,26,07,32,16.10
2013,07,26,07,33,16.20
2013,07,26,07,34,16.20
2013,07,26,07,35,16.30
2013,07,26,07,36,16.30
2013,07,26,07,37,16.40
2013,07,26,07,38,16.40
2013,07,26,07,39,16.40
2013,07,26,07,40,16.40
2013,07,26,07,41,16.40
2013,07,26,07,42,16.50
2013,07,26,07,43,16.60
2013,07,26,07,44,16.60
2013,07,26,07,45,16.60
2013,07,26,07,46,16.70
2013,07,26,07,47,16.70
2013,07,26,07,48,16.70
2013,07,26,07,49,16.70
2013,07,26,07,50,16.80
2013,07,26,07,51,16.90
2013,07,26,07,52,16.90
2013,07,26,07,53,16.90
2013,07,26,07,54,17.00
2013,07,26,07,55,17.00
2013,07,26,07,56,17.00
2013,07,26,07,57,17.00
2013,07,26,07,58,17.00
2013,07,26,07,59,17.10
2013,07,26,08,00,17.20
2013,07,26,08,01,17.30
2013,07,26,08,02,17.30
2013,07,26,08,03,17.30
2013,07,26,08,04,17.40
2013,07,26,08,05,17.50
2013,07,26,08,06,17.50
2013,07,26,08,07,17.50
2013,07,26,08,08,17.60
2013,07,26,08,09,17.60
2013,07,26,08,10,17.60
2013,07,26,08,11,17.60
2013,07,26,08,12,17.60
2013,07,26,08,13,17.80
2013,07,26,08,14,17.90
2013,07,26,08,15,17.90
2013,07,26,08,16,18.10
2013,07,26,08,17,18.10
2013,07,26,08,18,18.10
2013,07,26,08,19,18.10
2013,07,26,08,20,18.10
2013,07,26,08,21,18.20
2013,07,26,08,22,18.20
2013,07,26,08,23,18.20
2013,07,26,08,24,18.20
2013,07,26,08,25,18.20
2013,07,26,08,26,18.20
2013,07,26,08,27,18.20
2013,07,26,08,28,18.30
2013,07,26,08,29,18.30
2013,07,26,08,30,18.30
2013,07,26,08,31,18.30
2013,07,26,08,32,18.40
2013,07,26,08,33,18.40
2013,07,26,08,34,18.40
2013,07,26,08,35,18.40
2013,07,26,08,36,18.50
2013,07,26,08,37,18.50
2013,07,26,08,38,18.60
2013,07,26,08,39,18.60
2013,07,26,08,40,18.60
2013,07,26,08,41,18.60
2013,07,26,08,42,18.70
2013,07,26,08,43,18.70
2013,07,26,08,44,18.70
2013,07,26,08,45,18.80
2013,07,26,08,46,18.80
2013,07,26,08,47,18.90
2013,07,26,08,48,18.90
2013,07,26,08,49,19.00
2013,07,26,08,50,19.10
2013,07,26,08,51,19.10
2013,07,26,08,52,19.10
2013,07,26,08,53,19.10
2013,07,26,08,54,19.10
2013,07,26,08,55,19.20
2013,07,26,08,56,19.20
2013,07,26,08,57,19.10
2013,07,26,08,58,19.10
2013,07,26,08,59,19.00
2013,07,26,09,00,18.90
2013,07,26,09,01,18.90
2013,07,26,09,02,18.80
2013,07,26,09,03,18.80
2013,07,26,09,04,18.80
2013,07,26,09,05,18.70
2013,07,26,09,06,18.70
2013,07,26,09,07,18.70
2013,07,26,09,08,18.70
2013,07,26,09,09,18.70
2013,07,26,09,10,18.80
2013,07,26,09,11,18.90
2013,07,26,09,12,18.90
2013,07,26,09,13,18.90
2013,07,26,09,14,18.80
2013,07,26,09,15,18.70
2013,07,26,09,16,18.60
2013,07,26,09,17,18.50
2013,07,26,09,18,18.50
2013,07,26,09,19,18.60
2013,07,26,09,20,18.60
2013,07,26,09,21,18.70
2013,07,26,09,22,18.80
2013,07,26,09,23,18.90
2013,07,26,09,24,19.00
2013,07,26,09,25,19.10
2013,07,26,09,26,19.20
2013,07,26,09,27,19.30
2013,07,26,09,28,19.40
2013,07,26,09,29,19.60
2013,07,26,09,30,19.60
2013,07,26,09,31,19.50
2013,07,26,09,32,19.60
2013,07,26,09,33,19.60
2013,07,26,09,34,19.70
2013,07,26,09,35,19.80
2013,07,26,09,36,19.80
2013,07,26,09,37,19.80
2013,07,26,09,38,19.70
2013,07,26,09,39,19.60
2013,07,26,09,40,19.50
2013,07,26,09,41,19.50
2013,07,26,09,42,19.60
2013,07,26,09,43,19.60
2013,07,26,09,44,19.60
2013,07,26,09,45,19.60
2013,07,26,09,46,19.50
2013,07,26,09,47,19.50
2013,07,26,09,48,19.40
2013,07,26,09,49,19.30
2013,07,26,09,50,19.20
2013,07,26,09,51,19.20
2013,07,26,09,52,19.20
2013,07,26,09,53,19.20
2013,07,26,09,54,19.10
2013,07,26,09,55,19.20
2013,07,26,09,56,19.20
2013,07,26,09,57,19.30
2013,07,26,09,58,19.30
2013,07,26,09,59,19.40
2013,07,26,10,00,19.40
2013,07,26,10,01,19.50
2013,07,26,10,02,19.60
2013,07,26,10,03,19.70
2013,07,26,10,04,19.80
2013,07,26,10,05,19.80
2013,07,26,10,06,19.80
2013,07,26,10,07,19.90
2013,07,26,10,08,19.90
2013,07,26,10,09,19.90
2013,07,26,10,10,19.80
2013,07,26,10,11,19.80
2013,07,26,10,12,19.70
2013,07,26,10,13,19.70
2013,07,26,10,14,19.70
2013,07,26,10,15,19.80
2013,07,26,10,16,19.90
2013,07,26,10,17,19.90
2013,07,26,10,18,19.90
2013,07,26,10,19,19.90
2013,07,26,10,20,19.70
2013,07,26,10,21,19.50
2013,07,26,10,22,19.40
2013,07,26,10,23,19.50
2013,07,26,10,24,19.70
2013,07,26,10,25,19.70
2013,07,26,10,26,19.70
2013,07,26,10,27,19.80
2013,07,26,10,28,19.80
2013,07,26,10,29,20.00
2013,07,26,10,30,20.10
2013,07,26,10,31,20.20
2013,07,26,10,32,20.20
2013,07,26,10,33,20.20
2013,07,26,10,34,20.20
2013,07,26,10,35,20.20
2013,07,26,10,36,20.10
2013,07,26,10,37,19.90
2013,07,26,10,38,19.90
2013,07,26,10,39,19.90
2013,07,26,10,40,19.80
2013,07,26,10,41,19.70
2013,07,26,10,42,19.70
2013,07,26,10,43,19.80
2013,07,26,10,44,19.70
2013,07,26,10,45,19.70
2013,07,26,10,46,19.60
2013,07,26,10,47,19.60
2013,07,26,10,48,19.60
2013,07,26,10,49,19.60
2013,07,26,10,50,19.60
2013,07,26,10,51,19.50
2013,07,26,10,52,19.50
2013,07,26,10,53,19.50
2013,07,26,10,54,19.50
2013,07,26,10,55,19.50
2013,07,26,10,56,19.50
2013,07,26,10,57,19.60
2013,07,26,10,58,19.60
2013,07,26,10,59,19.60
2013,07,26,11,00,19.70
2013,07,26,11,01,19.80
2013,07,26,11,02,19.90
2013,07,26,11,03,20.00
2013,07,26,11,04,20.10
2013,07,26,11,05,20.10
2013,07,26,11,06,20.00
2013,07,26,11,07,19.90
2013,07,26,11,08,19.90
2013,07,26,11,09,19.90
2013,07,26,11,10,19.80
2013,07,26,11,11,19.70
2013,07,26,11,12,19.60
2013,07,26,11,13,19.70
2013,07,26,11,14,19.80
2013,07,26,11,15,20.00
2013,07,26,11,16,20.10
2013,07,26,11,17,20.10
2013,07,26,11,18,20.20
2013,07,26,11,19,20.10
2013,07,26,11,20,20.10
2013,07,26,11,21,20.00
2013,07,26,11,22,19.90
2013,07,26,11,23,19.90
2013,07,26,11,24,19.80
2013,07,26,11,25,19.70
2013,07,26,11,26,19.60
2013,07,26,11,27,19.40
2013,07,26,11,28,19.50
2013,07,26,11,29,19.50
2013,07,26,11,30,19.60
2013,07,26,11,31,19.80
2013,07,26,11,32,19.90
2013,07,26,11,33,20.00
2013,07,26,11,34,19.90
2013,07,26,11,35,19.90
2013,07,26,11,36,19.90
2013,07,26,11,37,19.90
2013,07,26,11,38,19.90
2013,07,26,11,39,19.80
2013,07,26,11,40,19.70
2013,07,26,11,41,19.70
2013,07,26,11,42,19.80
2013,07,26,11,43,19.90
2013,07,26,11,44,19.90
2013,07,26,11,45,19.90
2013,07,26,11,46,19.90
2013,07,26,11,47,19.90
2013,07,26,11,48,19.80
2013,07,26,11,49,19.80
2013,07,26,11,50,19.80
2013,07,26,11,51,19.80
2013,07,26,11,52,19.90
2013,07,26,11,53,19.80
2013,07,26,11,54,19.70
2013,07,26,11,55,19.60
2013,07,26,11,56,19.60
2013,07,26,11,57,19.60
2013,07,26,11,58,19.50
2013,07,26,11,59,19.40
2013,07,26,12,00,19.40
2013,07,26,12,01,19.60
2013,07,26,12,02,19.80
2013,07,26,12,03,19.90
2013,07,26,12,04,19.90
2013,07,26,12,05,19.90
2013,07,26,12,06,19.90
2013,07,26,12,07,19.90
2013,07,26,12,08,19.90
2013,07,26,12,09,20.00
2013,07,26,12,10,20.20
2013,07,26,12,11,20.30
2013,07,26,12,12,20.40
2013,07,26,12,13,20.40
2013,07,26,12,14,20.20
2013,07,26,12,15,20.20
2013,07,26,12,16,20.10
2013,07,26,12,17,20.10
2013,07,26,12,18,20.20
2013,07,26,12,19,20.20
2013,07,26,12,20,20.10
2013,07,26,12,21,19.90
2013,07,26,12,22,19.80
2013,07,26,12,23,19.70
2013,07,26,12,24,19.60
2013,07,26,12,25,19.50
2013,07,26,12,26,19.60
2013,07,26,12,27,19.60
2013,07,26,12,28,19.50
2013,07,26,12,29,19.60
2013,07,26,12,30,19.80
2013,07,26,12,31,20.00
2013,07,26,12,32,20.10
2013,07,26,12,33,20.10
2013,07,26,12,34,20.00
2013,07,26,12,35,19.90
2013,07,26,12,36,19.80
2013,07,26,12,37,19.80
2013,07,26,12,38,19.80
2013,07,26,12,39,19.80
2013,07,26,12,40,19.70
2013,07,26,12,41,19.80
2013,07,26,12,42,19.90
2013,07,26,12,43,19.90
2013,07,26,12,44,19.90
2013,07,26,12,45,20.00
2013,07,26,12,46,20.10
2013,07,26,12,47,20.20
2013,07,26,12,48,20.30
2013,07,26,12,49,20.50
2013,07,26,12,50,20.60
2013,07,26,12,51,20.70
2013,07,26,12,52,20.90
2013,07,26,12,53,21.00
2013,07,26,12,54,21.10
2013,07,26,12,55,21.10
2013,07,26,12,56,21.10
2013,07,26,12,57,21.00
2013,07,26,12,58,21.00
2013,07,26,12,59,21.10
2013,07,26,13,00,21.30
2013,07,26,13,01,21.30
2013,07,26,13,02,21.40
2013,07,26,13,03,21.50
2013,07,26,13,04,21.50
2013,07,26,13,05,21.60
2013,07,26,13,06,21.60
2013,07,26,13,07,21.70
2013,07,26,13,08,21.80
2013,07,26,13,09,22.00
2013,07,26,13,10,22.00
2013,07,26,13,11,22.10
2013,07,26,13,12,22.10
2013,07,26,13,13,22.10
2013,07,26,13,14,22.00
2013,07,26,13,15,22.00
2013,07,26,13,16,21.90
2013,07,26,13,17,21.80
2013,07,26,13,18,21.70
2013,07,26,13,19,21.60
2013,07,26,13,20,21.60
2013,07,26,13,21,21.60
2013,07,26,13,22,21.60
2013,07,26,13,23,21.60
2013,07,26,13,24,21.60
2013,07,26,13,25,21.80
2013,07,26,13,26,22.00
2013,07,26,13,27,22.00
2013,07,26,13,28,21.90
2013,07,26,13,29,22.00
2013,07,26,13,30,22.00
2013,07,26,13,31,22.20
2013,07,26,13,32,22.30
2013,07,26,13,33,22.40
2013,07,26,13,34,22.40
2013,07,26,13,35,22.40
2013,07,26,13,36,22.30
2013,07,26,13,37,22.40
2013,07,26,13,38,22.20
2013,07,26,13,39,22.10
2013,07,26,13,40,22.00
2013,07,26,13,41,21.90
2013,07,26,13,42,21.80
2013,07,26,13,43,21.60
2013,07,26,13,44,21.30
2013,07,26,13,45,21.30
2013,07,26,13,46,21.20
2013,07,26,13,47,21.20
2013,07,26,13,48,21.30
2013,07,26,13,49,21.30
2013,07,26,13,50,21.30
2013,07,26,13,51,21.30
2013,07,26,13,52,21.30
2013,07,26,13,53,21.30
2013,07,26,13,54,21.20
2013,07,26,13,55,21.20
2013,07,26,13,56,21.30
2013,07,26,13,57,21.30
2013,07,26,13,58,21.40
2013,07,26,13,59,21.40
2013,07,26,14,00,21.30
2013,07,26,14,01,21.20
2013,07,26,14,02,21.20
2013,07,26,14,03,21.30
2013,07,26,14,04,21.30
2013,07,26,14,05,21.20
2013,07,26,14,06,21.10
2013,07,26,14,07,21.10
2013,07,26,14,08,21.10
2013,07,26,14,09,21.10
2013,07,26,14,10,21.30
2013,07,26,14,11,21.30
2013,07,26,14,12,21.30
2013,07,26,14,13,21.20
2013,07,26,14,14,21.20
2013,07,26,14,15,21.10
2013,07,26,14,16,21.10
2013,07,26,14,17,21.00
2013,07,26,14,18,21.00
2013,07,26,14,19,20.90
2013,07,26,14,20,20.90
2013,07,26,14,21,20.70
2013,07,26,14,22,20.40
2013,07,26,14,23,20.30
2013,07,26,14,24,20.30
2013,07,26,14,25,20.40
2013,07,26,14,26,20.30
2013,07,26,14,27,20.20
2013,07,26,14,28,20.30
2013,07,26,14,29,20.40
2013,07,26,14,30,20.60
2013,07,26,14,31,20.80
2013,07,26,14,32,20.90
2013,07,26,14,33,21.10
2013,07,26,14,34,21.20
2013,07,26,14,35,21.40
2013,07,26,14,36,21.50
2013,07,26,14,37,21.60
2013,07,26,14,38,21.50
2013,07,26,14,39,21.20
2013,07,26,14,40,21.20
2013,07,26,14,41,21.10
2013,07,26,14,42,21.00
2013,07,26,14,43,20.90
2013,07,26,14,44,20.80
2013,07,26,14,45,20.60
2013,07,26,14,46,20.50
2013,07,26,14,47,20.50
2013,07,26,14,48,20.70
2013,07,26,14,49,20.70
2013,07,26,14,50,20.70
2013,07,26,14,51,20.70
2013,07,26,14,52,20.70
2013,07,26,14,53,20.60
2013,07,26,14,54,20.50
2013,07,26,14,55,20.60
2013,07,26,14,56,20.70
2013,07,26,14,57,20.80
2013,07,26,14,58,20.80
2013,07,26,14,59,20.90
2013,07,26,15,00,20.80
2013,07,26,15,01,20.80
2013,07,26,15,02,20.90
2013,07,26,15,03,20.90
2013,07,26,15,04,21.00
2013,07,26,15,05,21.00
2013,07,26,15,06,20.90
2013,07,26,15,07,20.70
2013,07,26,15,08,20.50
2013,07,26,15,09,20.20
2013,07,26,15,10,20.00
2013,07,26,15,11,19.80
2013,07,26,15,12,19.70
2013,07,26,15,13,19.60
2013,07,26,15,14,19.40
2013,07,26,15,15,19.40
2013,07,26,15,16,19.30
2013,07,26,15,17,19.30
2013,07,26,15,18,19.20
2013,07,26,15,19,19.20
2013,07,26,15,20,19.30
2013,07,26,15,21,19.40
2013,07,26,15,22,19.50
2013,07,26,15,23,19.50
2013,07,26,15,24,19.50
2013,07,26,15,25,19.40
2013,07,26,15,26,19.40
2013,07,26,15,27,19.30
2013,07,26,15,28,19.30
2013,07,26,15,29,19.10
2013,07,26,15,30,19.00
2013,07,26,15,31,18.90
2013,07,26,15,32,18.90
2013,07,26,15,33,18.90
2013,07,26,15,34,18.90
2013,07,26,15,35,19.10
2013,07,26,15,36,19.20
2013,07,26,15,37,19.40
2013,07,26,15,38,19.40
2013,07,26,15,39,19.30
2013,07,26,15,40,19.30
2013,07,26,15,41,19.10
2013,07,26,15,42,19.00
2013,07,26,15,43,18.80
2013,07,26,15,44,18.60
2013,07,26,15,45,18.60
2013,07,26,15,46,18.50
2013,07,26,15,47,18.50
2013,07,26,15,48,18.50
2013,07,26,15,49,18.50
2013,07,26,15,50,18.60
2013,07,26,15,51,18.60
2013,07,26,15,52,18.70
2013,07,26,15,53,18.90
2013,07,26,15,54,19.00
2013,07,26,15,55,19.10
2013,07,26,15,56,19.20
2013,07,26,15,57,19.40
2013,07,26,15,58,19.50
2013,07,26,15,59,19.50
2013,07,26,16,00,19.60
2013,07,26,16,01,19.60
2013,07,26,16,02,19.50
2013,07,26,16,03,19.40
2013,07,26,16,04,19.20
2013,07,26,16,05,19.10
2013,07,26,16,06,19.20
2013,07,26,16,07,19.30
2013,07,26,16,08,19.40
2013,07,26,16,09,19.50
2013,07,26,16,10,19.60
2013,07,26,16,11,19.70
2013,07,26,16,12,19.80
2013,07,26,16,13,19.90
2013,07,26,16,14,19.90
2013,07,26,16,15,19.90
2013,07,26,16,16,19.90
2013,07,26,16,17,19.90
2013,07,26,16,18,19.90
2013,07,26,16,19,19.90
2013,07,26,16,20,19.80
2013,07,26,16,21,19.70
2013,07,26,16,22,19.60
2013,07,26,16,23,19.50
2013,07,26,16,24,19.30
2013,07,26,16,25,19.20
2013,07,26,16,26,19.10
2013,07,26,16,27,19.00
2013,07,26,16,28,18.80
2013,07,26,16,29,18.60
2013,07,26,16,30,18.50
2013,07,26,16,31,18.40
2013,07,26,16,32,18.40
2013,07,26,16,33,18.20
2013,07,26,16,34,18.20
2013,07,26,16,35,18.20
2013,07,26,16,36,18.20
2013,07,26,16,37,18.20
2013,07,26,16,38,18.20
2013,07,26,16,39,18.10
2013,07,26,16,40,18.00
2013,07,26,16,41,17.90
2013,07,26,16,42,17.90
2013,07,26,16,43,17.80
2013,07,26,16,44,17.70
2013,07,26,16,45,17.70
2013,07,26,16,46,17.60
2013,07,26,16,47,17.50
2013,07,26,16,48,17.40
2013,07,26,16,49,17.30
2013,07,26,16,50,17.30
2013,07,26,16,51,17.30
2013,07,26,16,52,17.40
2013,07,26,16,53,17.40
2013,07,26,16,54,17.30
2013,07,26,16,55,17.30
2013,07,26,16,56,17.30
2013,07,26,16,57,17.20
2013,07,26,16,58,17.10
2013,07,26,16,59,17.00
2013,07,26,17,00,17.00
2013,07,26,17,01,16.90
2013,07,26,17,02,16.90
2013,07,26,17,03,16.80
2013,07,26,17,04,16.70
2013,07,26,17,05,16.70
2013,07,26,17,06,16.60
2013,07,26,17,07,16.60
2013,07,26,17,08,16.40
2013,07,26,17,09,16.40
2013,07,26,17,10,16.40
2013,07,26,17,11,16.50
2013,07,26,17,12,16.60
2013,07,26,17,13,16.70
2013,07,26,17,14,16.70
2013,07,26,17,15,16.80
2013,07,26,17,16,16.90
2013,07,26,17,17,17.00
2013,07,26,17,18,17.10
2013,07,26,17,19,17.20